Regional Weather Roundup
Issued by NWS State College, PA

Home | Current Version | Previous Version | Graphics & Text | Print | Product List | Glossary On
Versions: 1 2 3 4 5 6 7 8 9 10 11 12 13 14 15 16 17 18 19 20 21 22 23 24 25 26 27 28 29 30 31 32 33 34 35 36 37 38 39 40 41 42 43 44 45 46 47 48 49 50
000
ASUS41 KCTP 311510
RWRCTP

REGIONAL WEATHER ROUNDUP
NATIONAL WEATHER SERVICE STATE COLLEGE PA
1100 AM EDT MON AUG 31 2015

Note: "fair" indicates few or no clouds below 12,000 feet with no
significant weather and/or obstructions to visibility.

* = STATION THAT DOES NOT REPORT PRECIPITATION /E.G. RAIN...SNOW...ETC/
    THUNDER OR FOG.

PAZ002>004-007>009-013>016-020>023-029>032-311600-
WESTERN PENNSYLVANIA

CITY           SKY/WX    TMP DP  RH WIND       PRES   REMARKS
ERIE           SUNNY     78  66  66 W5        30.10R
MEADVILLE      SUNNY     76  67  73 W5        30.13R
FRANKLIN*      SUNNY     75  66  73 W7        30.15S
NEW CASTLE     FAIR      81  71  71 CALM      30.13S
BEAVER COUNTY  SUNNY     77  68  73 W3        30.14R
BUTLER*        MOSUNNY   77  66  69 SW3       30.16S
PITTSBURGH INT PTSUNNY   78  66  66 SW5       30.14R
PITTSBURGH     SUNNY     78  61  55 NW6       30.14R
INDIANA*       MOSUNNY   77  70  78 W7        30.18S
LATROBE        MOSUNNY   77  70  78 W9        30.15S
WASHINGTON CO* NOT AVBL
$$

PAZ004>006-010>012-017>019-024>028-033>037-041-042-045-046-049>053-311600-
CENTRAL PENNSYLVANIA

CITY           SKY/WX    TMP DP  RH WIND       PRES   REMARKS
BRADFORD       SUNNY     75  65  70 W7        30.15R
DUBOIS         PTSUNNY   74  66  76 W7        30.15R
CLEARFIELD     NOT AVBL
JOHNSTOWN      MOSUNNY   76  64  66 NW8       30.18S
ALTOONA        SUNNY     82  64  54 NW5       30.15R
STATE COLLEGE  SUNNY     79  68  69 W5        30.12S
WILLIAMSPORT   PTSUNNY   75  67  76 CALM      30.08S
SELINSGROVE    PTSUNNY   80  70  71 VRB3      30.09S
FT INDIANTOWN  PTSUNNY   81  69  65 VRB3      30.08F
CAPITAL CITY   PTSUNNY   81  68  64 SW7       30.09R
HARRISBURG     PTSUNNY   80  68  66 CALM      30.08S
YORK           CLOUDY    80  70  71 SW3       30.10R
$$

PAZ038>040-043-044-047-048-054-055-060>062-067>071-311600-
EASTERN PENNSYLVANIA

CITY           SKY/WX    TMP DP  RH WIND       PRES   REMARKS
SCRANTON       PTSUNNY   78  67  68 SW7       30.08S
MOUNT POCONO   PTSUNNY   75  67  76 W8        30.13S
ALLENTOWN      PTSUNNY   81  68  64 VRB3      30.07S
QUAKERTOWN*    PTSUNNY   81  68  65 W6        30.09S
READING        PTSUNNY   80  69  69 W3        30.08R
LANCASTER      PTSUNNY   79  68  69 W7        30.09R
COATESVILLE    PTSUNNY   82  68  61 NW7       30.11R
POTTSTOWN      PTSUNNY   79  69  71 CALM      30.09S
BLUE BELL      PTSUNNY   82  70  65 CALM      30.07S
DOYLESTOWN     PTSUNNY   78  68  71 SW3       30.07S
WILLOW GROVE   NOT AVBL
NORTH PHILA    PTSUNNY   85  66  53 W5        30.08S
PHILADELPHIA   PTSUNNY   83  68  60 SW10      30.07S
$$


USA.gov is the U.S. government's official web portal to all federal, state and local government web resources and services.